Home > Weather > Norwalk > Past weeks

Flag for USA Weather for the Past 2 Weeks in Norwalk, California, USA

Now
63 °F

Sunny.


Feels Like: 63 °F
Forecast: 55 / 70 °F
Wind: No wind

Location: Fullerton Municipal Airport

Current Time: Apr 29, 2016 at 9:11:58 PM

Latest Report: Apr 29, 2016 at 7:53 PM


Visibility: 10 mi

Pressure: 29.90 "Hg

Humidity: 65%

Dew Point: 51 °F

Location of NorwalkLocation

Historic Weather in Norwalk — Graph

°F

Norwalk Temperature Yesterday

Maximum temperature yesterday: 69 °F (at 12:53 PM)
Minimum temperature yesterday: 56 °F (at 3:53 AM)
Average temperature yesterday: 62 °F

High & Low Weather Summary for the Past Weeks

 TemperatureHumidityPressure
High91 °F (Apr 17, 12:53 PM)83% (Apr 22, 3:53 AM)30.05 "Hg (Apr 22, 3:53 AM)
Low52 °F (Apr 26, 4:53 AM)5% (Apr 17, 12:53 PM)29.73 "Hg (Apr 27, 11:53 PM)
Average68 °F45%29.91 "Hg
* Reported Apr 14 6:53 PM — Apr 29 6:53 PM, Norwalk, Weather by CustomWeather, © 2016

Note: Actual official high and low records may vary slightly from our data, if they occured in-between our weather recording intervals... More about our weather records

Advertising

Norwalk Weather History for the Previous 24 Hours

Scroll right to see more
 ConditionsComfort  
Time TempWeatherWind HumidityBarometerVisibility
6:53 PM
Fri, Apr 29
65 °FScattered clouds.6 mph61%29.90 "Hg10 mi
5:53 PM68 °FOvercast.6 mph57%29.90 "Hg10 mi
4:53 PM67 °FPassing clouds.10 mph55%29.92 "Hg10 mi
3:53 PM69 °FPassing clouds.12 mph49%29.94 "Hg10 mi
2:53 PM70 °FPassing clouds.9 mph46%29.96 "Hg10 mi
1:53 PM70 °FPartly sunny.6 mph47%29.98 "Hg10 mi
12:53 PM67 °FMostly cloudy.N/A53%29.99 "Hg10 mi
11:53 AM67 °FPartly sunny.7 mph53%30.01 "Hg10 mi
10:53 AM68 °FScattered clouds.6 mph45%30.01 "Hg10 mi
9:53 AM64 °FOvercast.3 mph54%30.02 "Hg10 mi
8:53 AM62 °FOvercast.No wind58%30.03 "Hg10 mi
7:53 AM59 °FPartly sunny.6 mph64%30.01 "Hg10 mi
6:53 AM58 °FPassing clouds.5 mph67%29.99 "Hg10 mi
5:53 AM56 °FPassing clouds.No wind72%29.98 "Hg10 mi
4:53 AM57 °FPassing clouds.No wind72%29.97 "Hg10 mi
3:53 AM57 °FPassing clouds.3 mph72%29.97 "Hg10 mi
2:53 AM57 °FOvercast.7 mph74%29.97 "Hg10 mi
1:53 AM58 °FPassing clouds.No wind72%29.97 "Hg10 mi
12:53 AM59 °FClear.5 mph72%29.97 "Hg10 mi
11:53 PM
Thu, Apr 28
59 °FClear.3 mph75%29.96 "Hg10 mi
10:53 PM59 °FClear.3 mph78%29.95 "Hg10 mi
9:53 PM59 °FClear.3 mph75%29.94 "Hg10 mi
Weather by CustomWeather, © 2016

See weather overviewHow to use our weather pages